Starlink 36213

operational
NORAD ID: 67212 Int'l Des: 2025-304 Owner: SPXS Country: US Constellation: starlink
LEOCIRCULAR

关于 Starlink 36213

正在加载描述...

实时位置

正在加载3D地球...

即将过境

高度历史

Altitude vs Time

uPlot chart will show altitude changes over time

两行轨道根数

1 67212C 25304W 25352.76645833 .00716480 00000+0 97922-3 0 3521
2 67212 69.9976 31.2745 0009318 252.9021 231.3852 16.05179837 12
Epoch: Dec 18, 2025 • Age: 41 hours

当前状态

高度 270.4 km
速度 7.75 km/s
星下点 59.01°N, 168.77°W
发射日期 Dec 17, 2025
运行时间 2 days
类型 internet

技术详情

分类 Payload
质量 575.00 kg
干质量 530.00 kg
总质量 575.00 kg
长度 0.30 m
直径 4.10 m
跨度 29.00 m
形状 Box + pan
制造商 SPXS
平台类型 Starlink V2MO
阶段状态 In Orbit
所有者/国家 SPXS/US

大型星座

Loading constellations...